Location: Huntsville
(41.2590°N, 111.7678°W)
Time: 06:26:05
(UTC+00:00)

BlueWalker 3 - Pass Details

Date: 11 December 2022
Orbit: 499 x 517 km, 53.2° (Epoch: 07 February)

Event Time Altitude Azimuth Distance (km) Brightness Sun altitude
Rises 00:43:15 0° 312° (NW) 2,630 6.0 -8.4°
Reaches altitude 10° 00:45:34 10° 319° (NW) 1,737 4.9 -8.8°
Maximum altitude 00:49:17 40° 30° (NNE) 760 2.5 -9.5°
Drops below altitude 10° 00:52:58 10° 102° (ESE) 1,717 4.1 -10.1°
Enters shadow 00:53:06 - 103° (ESE) 1,766 4.2 -10.1°
